Location: Kaarina
(60.4167°N, 22.4167°E)
Time: 08:02:18
(UTC+03:00)

COSMOS 2428 - Pass Details

Date: 24 August 2019
Orbit: 846 x 855 km, 70.9° (Epoch: 18 September)

Event Time Altitude Azimuth Distance (km) Brightness Sun altitude
Rises 23:14:05 0° 312° (NW) 3,427 7.6 -13.5°
Reaches altitude 10° 23:16:39 10° 319° (NW) 2,488 6.6 -13.7°
Maximum altitude 23:22:09 46° 32° (NNE) 1,131 3.5 -14.0°
Enters shadow 23:27:25 11° 105° (ESE) 2,404 4.6 -14.4°
